This is the latest recevied weather packets stored in our database for station/object KY4EF. If no packets are shown the sender has not sent any weather packets the latest 10 day(s).
| Time | Temp. | Humidity | Pressure | Rain* | Wind** | Luminosity | Snow |
|---|---|---|---|---|---|---|---|
| 1777984157 | 7.78° C | 99% | 1014.7 hPa | 0 mm | - | 45 W/m² | - |
| 1777983855 | 7.78° C | 99% | 1014.6 hPa | 0 mm | - | 38 W/m² | - |
| 1777983552 | 7.22° C | 99% | 1014.6 hPa | 0 mm | - | 35 W/m² | - |
| 1777983249 | 6.67° C | 99% | 1014.4 hPa | 0 mm | - | 33 W/m² | - |
| 1777982944 | 6.67° C | 99% | 1014.6 hPa | 0 mm | - | 30 W/m² | - |
| 1777982641 | 6.67° C | 99% | 1014.5 hPa | 0 mm | - | 28 W/m² | - |
| 1777982340 | 6.67° C | 99% | 1014.5 hPa | 0 mm | - | 29 W/m² | - |
| 1777982037 | 6.67° C | 99% | 1014.5 hPa | 0 mm | - | 29 W/m² | - |
| 1777981735 | 6.11° C | 99% | 1014.4 hPa | 0 mm | - | 27 W/m² | - |
| 1777981431 | 6.11° C | 99% | 1014.5 hPa | 0 mm | - | 24 W/m² | - |
| 1777981127 | 6.11° C | 99% | 1014.2 hPa | 0 mm | - | 21 W/m² | - |
| 1777980824 | 6.11° C | 99% | 1014.4 hPa | 0 mm | - | 19 W/m² | - |
| 1777980520 | 6.11° C | 99% | 1014.1 hPa | 0 mm | - | 17 W/m² | - |
| 1777980217 | 6.11° C | 99% | 1014.3 hPa | 0 mm | - | 15 W/m² | - |
| 1777979913 | 6.11° C | 99% | 1014 hPa | 0 mm | - | 15 W/m² | - |
| 1777979609 | 5.56° C | 99% | 1014.1 hPa | 0 mm | - | 14 W/m² | - |
| 1777979305 | 6.11° C | 99% | 1013.6 hPa | 0 mm | - | 14 W/m² | - |
| 1777979002 | 5.56° C | 99% | 1013.8 hPa | 0 mm | - | 12 W/m² | - |
| 1777978699 | 6.11° C | 99% | 1013.9 hPa | 0 mm | - | 9 W/m² | - |
| 1777978395 | 5.56° C | 99% | 1013.9 hPa | 0 mm | - | 7 W/m² | - |
| 1777978091 | 6.11° C | 99% | 1014 hPa | 0 mm | - | 4 W/m² | - |
| 1777977789 | 6.11° C | 99% | 1013.9 hPa | 0 mm | - | 2 W/m² | - |
| 1777977484 | 6.11° C | 99% | 1014.1 hPa | 0 mm | - | 1 W/m² | - |
| 1777977183 | 6.11° C | 99% | 1014.2 hPa | 0 mm | - | 1 W/m² | - |
| 1777976880 | 6.11° C | 99% | 1013.8 hPa | 0 mm | - | 0 W/m² | - |
* Rain latest hour (hover to see other rain measurements)
** Current wind speed in m/s (hover to see current wind gust speed)